CRE (WAAS/PRN 138)

Last updated on Oct. 27, 2021, 12:03 a.m. UTC

1 28868U 05036A   21299.43174330 -.00000067  00000-0  00000-0 0  9998
2 28868   0.0210  20.9848 0000974 223.2662 198.9203  1.00272447 29450
UTC
Height (km)
Latitude
Longitude
Inclination
Orbital Period
UTC large
Height (km)
Speed (km/s)
/
Latitude / Longitude
Inclination (degrees)
Orbital Period (minutes)
Azimuth
Elevation
Range (km)
Doppler Factor
iOS Compass Heading
iOS Angle